Location: New Mesquite
(33.1168°N, 96.4336°W)
Time: 09:20:31
(UTC+00:00)

Meteor 1-27 Rocket - Pass Details

Date: 04 July 2022
Orbit: 829 x 911 km, 81.3° (Epoch: 14 August)

Event Time Altitude Azimuth Distance (km) Brightness Sun altitude
Rises 07:30:17 0° 17° (NNE) 3,415 8.0 -32.2°
Reaches altitude 10° 07:34:40 10° 49° (NE) 2,457 6.8 -31.9°
Maximum altitude 07:36:31 12° 69° (ENE) 2,336 6.4 -31.8°
Drops below altitude 10° 07:38:21 10° 88° (E) 2,441 6.3 -31.7°
Enters shadow 07:40:14 - 105° (ESE) 2,759 6.4 -31.6°
